Find Kosmos-1057

NORAD ID: 11134 Int'l Des: 1978-109 Owner: GUKOSR Country: SU operational
LEOCIRCULAR

实时位置

正在加载3D地球...

关于 Kosmos-1057

正在加载描述...

即将过境

Passes for default location (London). Set your location on the main map for personalized predictions.

高度历史

Loading altitude history...

两行轨道根数

1 11134U 78109G 26105.49260876 -.00000017 00000-0 -91046-5 0 9996
2 11134 74.0205 11.6484 0022432 202.8953 330.5236 12.42129743147454
Epoch: Apr 15, 2026 • Age: 13 hours

当前状态

高度 1518.3 km
速度 7.10 km/s
星下点 30.32°N, 167.5°E
发射日期 Dec 5, 1978
运行时间 47.3 years
类型 other

技术详情

分类 Payload
质量 60.00 kg
干质量 60.00 kg
总质量 60.00 kg
长度 0.80 m
直径 0.80 m
跨度 0.80 m
形状 Poly
制造商 NPOPM
平台类型 Strela-1 11F625
阶段状态 In Orbit
所有者/国家 GUKOSR/SU

Most Searched